DW1970 Weather Reports


time (UTC)temp
F
wind
direction
speed
knots
gust
knots
rain 1hr
in
rain 24hr
in
rain mn
in
humidity
%
barometer
mb
20260506123051 53 212 0.0 0.0 0.00 0.01 0.00 95 1020.0
20260506121547 53 212 0.0 0.0 0.00 0.01 0.00 95 1020.0
20260506120051 53 212 0.0 0.0 0.00 0.01 0.00 95 1019.8
20260506114551 53 212 0.0 0.0 0.00 0.01 0.00 95 1019.7
20260506113042 53 212 0.0 0.0 0.00 0.01 0.00 95 1019.7
20260506111541 53 212 0.0 0.0 0.00 0.01 0.00 95 1019.7
20260506110040 53 212 0.0 0.0 0.00 0.01 0.00 95 1019.4
20260506104543 53 212 0.0 0.0 0.00 0.01 0.00 95 1019.3
20260506103038 53 212 0.0 0.0 0.00 0.01 0.00 95 1019.3
20260506101537 53 212 0.0 0.0 0.00 0.01 0.00 95 1019.3
20260506100039 53 216 0.0 0.0 0.00 0.01 0.00 95 1019.1
20260506094536 53 236 0.0 0.0 0.00 0.01 0.00 95 1019.1
20260506093035 53 282 0.0 0.0 0.00 0.01 0.00 95 1019.1
20260506091534 53 335 0.0 0.0 0.00 0.01 0.00 95 1019.2
20260506090034 53 335 0.0 0.0 0.00 0.01 0.00 95 1019.2
20260506084539 53 335 0.0 0.0 0.00 0.01 0.00 95 1019.1
20260506083033 53 335 0.0 0.0 0.00 0.01 0.00 95 1019.2
20260506081533 53 335 0.0 0.0 0.00 0.01 0.00 95 1019.2
20260506073027 53 346 0.0 0.0 0.00 0.01 0.00 95 1019.0
20260506071527 53 346 0.0 0.0 0.00 0.01 0.00 95 1018.9
20260506061521 54 347 0.0 0.0 0.00 0.02 0.01 95 1018.5
20260506044526 54 341 0.0 1.7 0.00 0.02 0.01 94 1017.8
20260506043015 54 339 0.0 1.7 0.00 0.02 0.01 94 1017.7
20260506041514 54 342 0.0 0.0 0.00 0.02 0.01 94 1017.6
20260506040013 54 27 0.0 0.0 0.01 0.02 0.01 94 1017.5
20260506034510 54 8 0.0 0.0 0.01 0.02 0.01 94 1017.1
20260506033008 54 355 0.0 0.0 0.01 0.02 0.01 94 1017.0
20260506031516 54 356 0.0 0.0 0.01 0.02 0.01 94 1016.8
20260506030017 55 341 0.0 0.0 0.00 0.01 0.00 94 1016.6
20260506024519 55 352 0.0 0.0 0.00 0.02 0.00 94 1016.4
20260506023007 55 330 0.0 4.3 0.00 0.02 0.00 94 1016.3
20260506021505 55 346 0.0 0.0 0.00 0.02 0.00 94 1016.3
20260506020005 55 298 0.0 2.6 0.00 0.02 0.00 93 1016.3
20260506014503 55 312 0.0 7.0 0.00 0.02 0.00 93 1016.3
20260506013004 56 293 0.9 8.7 0.00 0.02 0.00 92 1016.3
20260506011504 56 303 0.0 10.4 0.00 0.02 0.00 92 1016.1
20260506010005 56 358 0.0 7.0 0.00 0.02 0.00 91 1016.2
20260506004505 56 321 0.0 8.7 0.00 0.05 0.00 91 1016.2
20260506003002 57 342 0.0 7.8 0.00 0.05 0.00 91 1016.3
20260506001502 57 327 0.0 8.7 0.00 0.05 0.00 90 1016.2
20260506000001 57 343 0.9 7.8 0.00 0.05 0.00 90 1016.1
20260505234602 57 17 4.3 10.4 0.00 0.08 0.00 90 1016.1
20260505233129 58 328 0.9 9.6 0.00 0.08 0.00 89 1016.1
20260505231600 57 360 0.9 10.4 0.00 0.08 0.00 88 1016.2
20260505230059 58 6 4.3 12.2 0.00 0.08 0.00 87 1016.3
20260505224557 59 341 2.6 10.4 0.00 0.10 0.00 87 1016.2
20260505223056 59 6 4.3 11.3 0.00 0.10 0.00 88 1016.4
20260505221602 59 335 0.0 8.7 0.00 0.10 0.00 89 1016.6
20260505220055 58 318 1.7 9.6 0.00 0.10 0.00 89 1016.5
20260505214554 58 333 2.6 9.6 0.00 0.10 0.00 88 1016.6
20260505213057 59 10 0.9 9.6 0.00 0.10 0.00 88 1016.6
20260505211553 59 13 0.0 5.2 0.00 0.10 0.00 89 1016.8
20260505210051 59 330 0.0 5.2 0.00 0.10 0.00 90 1016.7
20260505204550 59 346 0.0 7.8 0.00 0.10 0.00 92 1016.7
20260505203052 59 358 6.1 9.6 0.00 0.10 0.00 91 1016.7
20260505201550 58 348 0.0 8.7 0.00 0.10 0.00 93 1016.6
20260505200047 58 334 0.0 2.6 0.00 0.10 0.00 93 1016.7
20260505194549 58 2 0.0 1.7 0.00 0.10 0.00 95 1016.7
20260505193101 57 313 0.0 0.0 0.00 0.10 0.00 95 1016.7
20260505191542 56 350 0.0 1.7 0.00 0.10 0.00 96 1016.7
20260505190041 56 319 0.0 0.0 0.00 0.10 0.00 96 1016.8
20260505184536 55 331 0.0 1.7 0.00 0.11 0.00 96 1016.5
20260505183035 55 326 0.0 0.0 0.00 0.11 0.00 96 1016.6
20260505181535 55 328 0.0 5.2 0.00 0.11 0.00 96 1016.5
20260505180135 55 309 0.0 1.7 0.00 0.11 0.00 96 1016.3
20260505174531 55 339 0.0 0.0 0.00 0.11 0.00 97 1016.3
20260505173029 54 345 0.0 0.0 0.00 0.11 0.00 96 1016.1
20260505171529 54 323 0.0 0.0 0.00 0.11 0.00 96 1016.0
20260505170028 55 334 0.0 0.0 0.00 0.11 0.00 97 1016.1
20260505164526 54 329 0.0 0.0 0.00 0.11 0.00 97 1016.0
20260505163031 54 10 0.0 4.3 0.00 0.11 0.00 97 1015.9
20260505161524 54 3 0.0 7.8 0.00 0.11 0.00 96 1015.7
20260505153024 53 357 0.0 0.0 0.00 0.11 0.00 97 1015.5
20260505151520 53 13 0.0 0.0 0.00 0.11 0.00 97 1015.4
20260505124512 52 358 0.0 0.0 0.00 0.11 0.00 96 1014.7